User: anonymous   Login
Location: Unspecified
(0.0000°N, 0.0000°E)
Time: 05:29:22
(UTC+00:00)
Language:

UHF F/O F4 - Orbit

View from above orbital plane
View from above orbital plane
View from above satellite
View from above satellite

Ground track
Ground track

The orbit data is extracted from the following two-line orbital elements,

1 23467U 95003A   18352.31906142 -.00000012  00000-0  00000+0 0  9997
2 23467   9.9460  23.9507 0002979 249.3837 100.4739  1.00272305 87516
Epoch (UTC): 18 December 2018 07:39:26
Eccentricity: 0.0002979
inclination: 9.9460°
perigee height: 35773 km
apogee height: 35798 km
right ascension of ascending node: 23.9507°
argument of perigee: 249.3837°
revolutions per day: 1.00272305
mean anomaly at epoch: 100.4739°
orbit number at epoch: 8751

The dashed part of the orbit path shows where the satellite is in the earth's shadow,  

DLR